Other Surface Observations
Issued by NWS

Current Version | Previous Version | Text Only | Print | Product List | Glossary On
Versions: 1 2 3 4 5 6 7 8 9 10 11 12 13 14 15 16 17 18 19 20 21 22 23 24 25 26 27 28 29 30 31 32 33 34 35 36 37 38 39 40 41 42 43 44 45 46 47 48 49 50
139
SXUS52 KTAE 181919
OSOTAE
OSOTAE
North Florida/South Alabama/Southwest Georgia Weather Roundup
National Weather Service Tallahassee Florida
300 PM EDT WED OCT 18 2017

Note: "fair" indicates few or no clouds below 12,000 feet with no
significant weather and/or obstructions to visibility.

!FLZ017-115-028-034-025-182000
...North Florida...

CITY           SKY/WX    TMP DP  RH WIND       PRES   REMARKS
TALLAHASSEE    MOSUNNY   79  60  52 NE3       30.16F
APALACHICOLA   PTSUNNY   80  63  55 NE9       30.14F
PERRY          NOT AVBL
CROSS CITY     PTSUNNY   82  66  57 NE13G20   30.16F
JACKSONVILLE   MOSUNNY   79  67  66 NE20G28   30.17F
$$

!FLZ112-006-005-002-011-182000
...Florida Panhandle...

CITY           SKY/WX    TMP DP  RH WIND       PRES   REMARKS
MARIANNA       SUNNY     77  56  48 NE13G20   30.17F
BONIFAY        NOT AVBL
PANAMA CITY NW FAIR      79  55  43 NE7       30.15F
TYNDALL AFB    MOSUNNY   79  60  52 NE9       30.14F
TYND DRONE APT FAIR      80  61  53 NE8       30.14F
DE FUNIAK SPR  FAIR      74  54  49 NE7G17    30.19F
EGLIN AFB      SUNNY     78  50  37 VRB5      30.16F
DESTIN         SUNNY     79  53  40 E8        30.16F
HURLBURT       SUNNY     77  52  41 E6        30.15F
CRESTVIEW      SUNNY     78  55  44 NE8       30.19F
PENSACOLA      SUNNY     77  50  38 NE6       30.17F
$$

!ALZ063-066-182000
...South Alabama...

CITY           SKY/WX    TMP DP  RH WIND       PRES   REMARKS
DOTHAN         SUNNY     77  54  44 NE8       30.23F
OZARK CAIRNS   SUNNY     75  54  47 NE9       30.19F
FT RUCKER HELI SUNNY     74  55  52 NE7       30.19F
RUCKER HELI 3  FAIR      73  54  51 NE9       30.19F
RUCKER HELI 2  FAIR      75  54  48 E12       30.18
FLORALA APT    SUNNY     75  55  49 MISG      30.21F
ANDALUSIA      SUNNY     77  54  44 E9        30.19F
TROY           SUNNY     72  52  49 VRB6      30.23F
EUFALA         FAIR      76  42  29 VRB6      30.22F
MOBILE         SUNNY     74  47  38 NE8       30.19F
$$

!GAZ120>161-182000
...Southwest and South Central Georgia...

CITY           SKY/WX    TMP DP  RH WIND       PRES   REMARKS
THOMASVILLE    FAIR      79  57  47 NE12      30.19F
BAINBRIDGE     SUNNY     79  61  53 E9        30.19F
MOODY AFB      PTSUNNY   78  58  50 E7        30.17F
VALDOSTA       MOSUNNY   78  60  53 NE10      30.17F
MOULTRIE       SUNNY     77  55  47 E7        30.20F
BLAKELY        SUNNY     79  54  41 E5        30.21F
ALBANY         SUNNY     76  54  46 VRB5      30.22F
TIFTON         FAIR      76  56  49 NE6       30.20F
FITZGERALD     FAIR      76  57  52 NE7       30.23F
CORDELE        FAIR      77  47  34 N6        30.24F
AMERICUS       FAIR      73  34  23 NE5       30.25F
HOMERVILLE     FAIR      77  59  53 E6        30.19F
$$

!GMZ750-755-770-775-182000
...Coastal and Buoy Obs...

STATION/POSITION TIME  TEMP    WIND        PRES    VSBY  WAVE
                       AIR SEA DIR/SP/G                  HT/PER
                 (UTC) (F)     (DEG/KT/KT) (MB)    (MI)  (FT/S)
KEATON BEACH     1900   79      70/  7/  9 1019.7F
CEDAR KEY        1900   79      60/ 12/ 13 1019.2F
C TOWER          1900   72      60/ 20/ 22 1020.6F
APALACHICOLA BUO 1850   76 81   60/ 17/ 23 1018.4F         6/ 6
PANAMA CITY BUOY 1850   76 82   60/ 16/ 19 1019.4F         5/ 6
MOBILE BUOY      1900   75 82   50/ 14/ 16 1020.5
ORANGE BCH AL BU 1850   69 79   50/ 10/ 14 1021.4F         3/ 6
$$




USA.gov is the U.S. government's official web portal to all federal, state and local government web resources and services.